Location: The Stocker AstroScience Center
(25.7579°N, 80.3725°W)
Time: 20:13:12
(UTC-04:00)

ISS - All Passes

Search period start: 17 April 2014 00:00
Search period end: 27 April 2014 00:00
Orbit: 414 x 419 km, 51.6° (Epoch: 17 April)

Date Brightness Start Highest point End Pass type
(mag) Time Alt. Az. Time Alt. Az. Time Alt. Az.
17 Apr - 00:44:53 10° NW 00:48:13 65° NE 00:51:32 10° SE night (unlit)
17 Apr - 15:44:53 10° SW 15:48:12 74° NW 15:51:32 10° NE daylight
17 Apr - 23:56:55 10° NNW 23:59:56 30° NE 00:02:55 10° ESE night (unlit)
18 Apr - 01:34:43 10° W 01:36:25 13° SW 01:38:07 10° SSW night (unlit)
18 Apr - 14:56:45 10° SSW 14:59:58 47° SE 15:03:11 10° NE daylight
18 Apr - 16:35:51 10° WNW 16:36:52 11° NW 16:37:54 10° NNW daylight
18 Apr - 23:09:17 10° N 23:11:31 17° NE 23:13:45 10° E night (unlit)
19 Apr - 00:45:21 10° WNW 00:48:15 27° SW 00:51:07 10° S night (unlit)
19 Apr - 14:09:06 10° S 14:11:44 22° SE 14:14:22 10° ENE daylight
19 Apr - 15:45:53 10° W 15:48:23 19° NW 15:50:53 10° N daylight
19 Apr - 23:56:40 10° NW 23:59:59 61° SW 00:03:16 10° SSE night (unlit)
20 Apr - 13:22:44 10° SE 13:23:31 11° SE 13:24:17 10° ESE daylight
20 Apr - 14:56:49 10° WSW 14:59:56 37° NW 15:03:03 10° NNE daylight
20 Apr - 23:08:19 10° NNW 23:11:37 58° NE 23:14:54 10° SE visible
21 Apr - 14:08:11 10° SW 14:11:30 83° NW 14:14:50 10° NE daylight
21 Apr - 22:20:13 10° NNW 22:23:09 28° NE 22:26:04 10° ESE visible
21 Apr - 23:57:43 10° W 23:59:39 15° SW 00:01:35 10° SSW night (unlit)
22 Apr - 13:19:57 10° SSW 13:23:06 42° SE 13:26:16 10° ENE daylight
22 Apr - 14:58:38 10° WNW 14:59:58 12° NW 15:01:18 10° NNW daylight
22 Apr - 21:32:30 10° N 21:34:34 15° NE 21:36:38 10° E visible
22 Apr - 23:08:21 10° WNW 23:11:19 30° SW 23:14:16 10° S visible
23 Apr - 12:32:14 10° S 12:34:43 20° SE 12:37:13 10° ENE daylight
23 Apr - 14:08:43 10° W 14:11:19 21° NW 14:13:56 10° N daylight
23 Apr - 22:19:34 10° NW 22:22:53 69° SW 22:26:11 10° SSE visible
24 Apr - 13:19:33 10° WSW 13:22:43 41° NW 13:25:53 10° NNE daylight
24 Apr - 21:31:05 10° NNW 21:34:21 51° NE 21:37:36 10° SE visible
25 Apr - 12:30:50 10° SW 12:34:08 87° SE 12:37:28 10° NE daylight
25 Apr - 20:42:52 10° NNW 20:45:42 25° NE 20:48:32 10° ESE visible
25 Apr - 22:20:04 10° W 22:22:14 16° SW 22:24:24 10° SSW visible
26 Apr - 11:42:30 10° SSW 11:45:35 37° SE 11:48:41 10° ENE daylight
26 Apr - 13:20:46 10° WNW 13:22:24 13° NW 13:24:02 10° N daylight
26 Apr - 19:55:06 10° N 19:56:57 14° NE 19:58:47 10° ENE daylight
26 Apr - 21:30:40 10° WNW 21:33:44 34° SW 21:36:46 10° SSE visible
